Regional Weather Roundup
Issued by NWS

Home | Current Version | Previous Version | Text Only | Print | Product List | Glossary Off
Versions: 1 2 3 4 5 6 7 8 9 10 11 12 13 14 15 16 17 18 19 20 21 22 23 24 25 26 27 28 29 30 31 32 33 34 35 36 37 38 39 40 41 42 43 44 45 46 47 48 49 50

000
ASUS43 KLSX 230859
RWRMO

WEATHER SUMMARY FOR MISSOURI
NATIONAL WEATHER SERVICE SPRINGFIELD MO
300 AM CST SUN NOV 23 2014

NOTE: "FAIR" INDICATES FEW OR NO CLOUDS BELOW 12,000 FEET WITH NO
       SIGNIFICANT WEATHER AND/OR OBSTRUCTIONS TO VISIBILITY.
       CURRENT SKY AND/OR WEATHER CONDITIONS ARE NOT AVAILABLE FOR
       CHILLICOTHE AND FARMINGTON.

MOZ001>031-035>038-043-044-053-054-231000-
...NORTHERN AND WESTERN MISSOURI...

CITY           SKY/WX    TMP DP  RH WIND       PRES   REMARKS
KANSAS CTY INT CLOUDY    54  51  90 S12       29.61F
KANSAS C DTWN  LGT RAIN  55  51  86 S8G17     29.62F
ST JOSEPH      CLOUDY    54  51  90 S13       29.59F
CHILLICOTHE      N/A     54  50  86 S7        29.66F
KIRKSVILLE     CLOUDY    54  50  86 S12       29.68F

$$
MOZ066>068-077>081-088>096-101>105-231000-
...SOUTHWEST MISSOURI...

CITY           SKY/WX    TMP DP  RH WIND       PRES   REMARKS
SPRINGFIELD    CLOUDY    55  52  89 SE15      29.65F
JOPLIN         CLOUDY    58  53  84 SE9       29.62F

$$
MOZ032>034-039>042-045>050-055>058-069>072-231000-
...CENTRAL MISSOURI...

CITY           SKY/WX    TMP DP  RH WIND       PRES   REMARKS
COLUMBIA       CLOUDY    54  50  86 S14       29.70F
JEFFERSON CITY CLOUDY    56  50  80 SE8       29.72F
ROLLA          MOCLDY    52  46  80 S13G22    29.72F
SEDALIA        CLOUDY    56  50  80 S14       29.66F
WARRENSBURG    DRIZZLE   52  50  93 SE7       29.64F
OSAGE BEACH    MOCLDY    54  48  82 S7        29.69F

$$
MOZ051-052-059>065-231000-
...EAST CENTRAL MISSOURI...

CITY           SKY/WX    TMP DP  RH WIND       PRES   REMARKS
ST LOUIS INTL  CLOUDY    56  44  64 S12G18    29.79F
SPIRIT OF STL  CLOUDY    54  45  71 S6        29.77F
ST CHARLES     CLOUDY    52  46  80 SE10      29.78F

$$
MOZ072>076-082>087-097>100-106>115-231000-
...SOUTH CENTRAL AND SOUTHEAST MISSOURI...

CITY           SKY/WX    TMP DP  RH WIND       PRES   REMARKS
CAPE GIRARDEAU MOCLDY    50  43  77 SE9       29.85F
FARMINGTON     MOCLDY    50  45  81 SE6       29.83F
POPLAR BLUFF   MOCLDY    52  45  77 SE9       29.81F
WEST PLAINS    CLOUDY    52  47  83 SE8       29.74F

$$



USA.gov is the U.S. government's official web portal to all federal, state and local government web resources and services.